DateTimeUTC,F1_A11,F1_S11,BsB_S11,BsG_S11,BsR_S11,BbsB_S11,BbsG_S11,BbsR_S11,BaB_A11,BaG_A11,BaR_A11,Tu_S11,T_S11,Uu_S11,U_S11,P_S11,T1_A11
2021-06-14T19:00:00Z,,20000000,,,,,,,,,,19.7,26.1,03.2,02.2,0669.7,
2021-06-14T19:01:00Z,,20000000,,,,,,,,,,19.7,26.1,03.2,02.2,0669.7,
2021-06-14T19:02:00Z,,20000000,,,,,,,,,,19.7,26.1,03.2,02.2,0669.7,
2021-06-14T19:03:00Z,,60000000,,,,,,,,,,19.7,26.1,03.2,02.2,0669.7,
2021-06-14T19:16:00Z,00000200,,,,,,,,,,,,,,,,32.1
2021-06-14T19:17:00Z,00000200,00000000,0000.95,0000.80,0000.21,0000.01,0000.49,-000.05,-000.42,0000.60,0000.57,19.9,26.0,03.5,02.5,0670.5,31.8
2021-06-14T19:18:00Z,00000200,00000000,0000.82,0000.57,0000.52,0000.13,0000.32,-000.01,0000.19,-000.03,-000.01,19.9,25.9,03.4,02.4,0670.5,31.7
2021-06-14T19:19:00Z,00000200,00000000,0000.59,0000.83,0000.33,0000.42,0000.17,-000.03,0000.00,0000.06,0000.49,19.9,26.0,03.3,02.3,0670.5,31.6
2021-06-14T19:20:00Z,00000200,00000000,0001.10,0000.64,0000.09,-000.33,0000.08,-000.17,0000.26,0000.38,0000.19,19.9,25.9,03.3,02.3,0670.5,31.5
2021-06-14T19:21:00Z,00000200,00000000,0000.09,0000.55,0000.29,0000.36,0000.13,-000.09,-000.18,-000.64,-000.41,19.9,26.0,03.4,02.4,0670.5,31.5
2021-06-14T19:22:00Z,00000200,00000000,0000.14,0000.56,0000.00,0000.15,-000.03,-000.24,0000.29,0000.38,0000.22,19.9,26.0,03.3,02.3,0670.5,31.4
2021-06-14T19:23:00Z,00000200,00000000,0001.02,0000.59,0000.35,-000.26,0000.23,0000.19,0000.03,0000.32,0000.40,19.9,25.9,03.4,02.4,0670.5,31.3
2021-06-14T19:24:00Z,00000200,00000000,0000.52,0000.53,0000.03,0000.13,0000.15,0000.07,0000.19,0000.19,0000.03,19.9,26.0,03.4,02.4,0670.5,31.3
2021-06-14T19:25:00Z,00000200,00000000,0000.22,0000.56,-000.11,0000.00,0000.26,-000.14,0000.57,0000.10,0000.26,19.9,25.9,03.4,02.3,0670.5,31.2
2021-06-14T19:26:00Z,00000200,00000000,0000.25,0000.36,0000.60,0000.26,0000.18,0000.22,0000.03,0000.25,0000.20,19.9,26.0,03.4,02.3,0670.5,31.2
2021-06-14T19:27:00Z,00000200,00000000,0000.28,0000.57,0000.38,0000.39,0000.27,-000.18,-000.19,0000.23,0000.14,19.9,26.0,03.3,02.3,0670.5,31.2
2021-06-14T19:28:00Z,00000200,00000000,0000.52,0000.57,0000.38,0000.61,0000.28,-000.02,0000.39,-000.12,-000.11,19.8,26.0,03.3,02.3,0670.5,31.2
2021-06-14T19:29:00Z,00000200,00000000,0000.54,0000.70,0000.20,0000.00,-000.16,0000.13,0000.24,0000.08,0000.25,19.8,26.0,03.3,02.3,0670.5,31.2
2021-06-14T19:30:00Z,00000200,00000000,0000.79,0000.59,0000.16,0000.10,0000.09,-000.09,0000.15,0000.12,-000.07,19.8,26.0,03.3,02.3,0670.5,31.2
2021-06-14T19:31:00Z,00000200,00000000,0000.39,0000.68,0000.57,0000.08,0000.27,0000.17,0000.04,0000.22,0000.25,19.8,26.0,03.2,02.2,0670.5,31.2
2021-06-14T19:32:00Z,00000200,00000000,0000.66,0000.62,0000.66,0000.07,0000.30,0000.21,0000.43,0000.31,0000.13,19.8,26.0,03.3,02.3,0670.5,31.2
2021-06-14T19:33:00Z,00000200,00000000,-000.46,0000.50,0000.41,0000.29,0000.33,0000.25,0000.19,0000.07,-000.13,19.8,26.0,03.3,02.3,0670.5,31.1
2021-06-14T19:34:00Z,00000200,00000000,0000.37,0000.82,0000.26,0000.20,0000.10,0000.02,-000.00,-000.33,0000.38,19.8,25.9,03.2,02.2,0670.5,31.2
2021-06-14T19:35:00Z,00000200,00000000,0000.96,0000.64,0000.62,0000.38,0000.22,0000.17,0000.00,0000.64,-000.03,19.8,26.0,03.3,02.3,0670.5,31.1
2021-06-14T19:36:00Z,00000200,00000000,0000.91,0000.62,0000.29,0000.22,0000.16,-000.24,0000.40,0000.30,0000.26,19.8,26.0,03.3,02.3,0670.5,31.1
2021-06-14T19:37:00Z,00000200,00000000,0000.73,0000.46,0000.03,0000.05,0000.07,-000.40,0000.16,-000.03,0000.39,19.8,26.0,03.4,02.3,0670.5,31.1
2021-06-14T19:38:00Z,00000200,00000000,-000.07,0000.74,0000.51,-000.47,0000.13,0000.20,0000.27,0000.08,-000.05,19.8,25.9,03.3,02.3,0670.4,31.1
2021-06-14T19:39:00Z,00000200,00000000,0000.89,0000.58,0000.26,0000.13,0000.06,0000.12,-000.26,-000.01,-000.27,19.8,26.0,03.4,02.3,0670.5,31.1
2021-06-14T19:40:00Z,00000200,00000000,0000.44,0000.64,0000.34,-000.08,0000.24,0000.10,0000.37,-000.06,0000.25,19.8,25.9,03.3,02.3,0670.5,31.1
2021-06-14T19:41:00Z,00000200,00000000,0000.37,0000.62,0000.11,0000.09,0000.03,0000.10,0000.17,0000.30,0000.22,19.8,25.9,03.3,02.2,0670.5,31.1
2021-06-14T19:42:00Z,00000200,00000000,0000.16,0000.62,0000.24,0000.51,-000.10,-000.28,0000.01,0000.46,0000.09,19.8,25.9,03.2,02.2,0670.5,31.1
2021-06-14T19:43:00Z,00000200,00000000,0000.76,0000.43,0000.56,0000.50,0000.05,-000.20,0000.27,-000.06,0000.38,19.8,25.9,03.2,02.2,0670.5,31.1
2021-06-14T19:44:00Z,00000200,00000000,0000.09,0000.35,0000.19,-000.38,0000.09,0000.00,0000.08,0000.33,0000.19,19.8,25.9,03.3,02.2,0670.5,31.1
2021-06-14T19:45:00Z,00000200,00000000,0000.30,0000.75,0000.29,-000.09,-000.02,-000.08,0000.34,0000.18,0000.02,19.7,25.9,03.3,02.3,0670.5,31.1
2021-06-14T19:46:00Z,00000200,00000000,0000.85,0000.41,0000.26,0000.50,0000.45,0000.22,0000.19,0000.05,0000.12,19.8,25.9,03.3,02.2,0670.5,31.1
2021-06-14T19:47:00Z,00000200,00000000,0000.68,0000.56,0000.29,-000.16,0000.28,0000.21,0000.06,0000.02,-000.12,19.8,25.9,03.3,02.2,0670.5,31.1
2021-06-14T19:48:00Z,00000200,00000000,0000.62,0000.89,0000.49,0000.64,0000.12,-000.08,0000.45,0000.31,0000.22,19.7,25.9,03.2,02.2,0670.5,31.1
2021-06-14T19:49:00Z,00000200,00000000,0000.46,0000.75,0000.38,0000.28,-000.04,0000.10,-000.16,0000.01,-000.22,19.7,25.9,03.2,02.2,0670.5,31.1
2021-06-14T19:50:00Z,00000200,00000000,0000.58,0000.64,0000.43,0000.68,0000.13,0000.21,-000.10,-000.24,0000.55,19.7,25.9,03.2,02.2,0670.5,31.1
2021-06-14T19:51:00Z,00000200,00000000,0000.21,0000.58,0000.52,-000.17,0000.10,0000.06,0000.50,0000.43,0000.01,19.7,25.9,03.2,02.2,0670.5,31.1
2021-06-14T19:52:00Z,00000200,00000000,0000.36,0000.63,0000.43,0000.23,0000.22,-000.01,0000.14,0000.32,-000.22,19.7,25.9,03.2,02.2,0670.5,31.1
2021-06-14T19:53:00Z,00000200,00000000,0000.01,0000.72,0000.48,0000.01,0000.05,-000.32,0000.26,0000.10,0000.43,19.7,25.9,03.2,02.2,0670.5,31.1
2021-06-14T19:54:00Z,00000200,00000000,0000.76,0000.77,0000.67,0000.07,0000.29,-000.01,-000.08,0000.23,0000.09,19.7,25.9,03.3,02.2,0670.5,31.1
2021-06-14T19:55:00Z,00000200,00000000,0000.44,0000.80,0000.56,-000.22,0000.11,0000.15,0000.51,-000.01,0000.56,19.7,25.9,03.3,02.2,0670.5,31.1
2021-06-14T19:56:00Z,00000200,00000000,0001.53,0000.50,0000.33,0000.33,0000.00,-000.07,-000.30,0000.12,-000.56,19.7,25.9,03.2,02.2,0670.6,31.1
2021-06-14T19:57:00Z,00000200,40000000,,,,,,,0000.37,0000.22,0000.27,19.8,26.0,03.5,02.4,0670.5,31.2
2021-06-14T19:58:00Z,00000200,60000000,,,,,,,-000.19,-000.21,-000.09,19.6,26.0,03.3,02.2,0669.6,31.2
2021-06-14T19:59:00Z,00000200,20000000,,,,,,,0000.09,0000.11,-000.03,19.5,26.1,03.1,02.1,0669.6,31.1
